Location: Nitra
(0.0000°N, 18.0833°E)
Time: 09:37:54
(UTC+02:00)

A-11 Canister half - Pass Details

Date: 05 April 2023
Orbit: 1513 x 1686 km, 47.2° (Epoch: 02 June)

Event Time Altitude Azimuth Distance (km) Brightness Sun altitude
Exits shadow 04:01:00 69° 79° (ENE) 1,763 9.2 -42.1°
Drops below altitude 10° 04:10:09 10° 133° (SE) 3,868 11.4 -39.9°
Sets 04:13:15 0° 135° (SE) 4,835 12.0 -39.1°
